Voltar ao catálogo

STARLINK-34971

AtivoComunicaçõesSSO
NORAD 65256·PAYLOAD·🇺🇸 United States

Lançado Aug 18, 2025 de Vandenberg Space Force Base

Loading…

Próximas Passagens (próximas 24 horas)

TLE

AtualizadoSource: CelesTrak SupGP

Época: Sep 15, 2026, 03:44 UTC

1 65256C 25179X   26258.15604167 -.00053376  00000+0 -16571-2 0  2586
2 65256  97.2833 297.5083 0001055  93.4177 151.6193 15.33462638    12

Acompanhe STARLINK-34971 em tempo real com AllMySat

Download on the App Store